EN

Hourly Weather Staraya Topovka

Today, 23 October, Friday

Time Temperature Precipitation Wind Pressure Humidity
00:00 +6°C° 0 mm 5 mps 741 mmHg 60%
01:00 +6°C° 0 mm 5 mps 741 mmHg 58%
02:00 +6°C° 0 mm 5 mps 741 mmHg 57%
03:00 +7°C° 0 mm 5 mps 740 mmHg 55%
04:00 +7°C° 0 mm 5 mps 740 mmHg 63%
05:00 +6°C° 0 mm 4 mps 739 mmHg 70%
06:00 +6°C° 0 mm 4 mps 739 mmHg 78%
07:00 +7°C° 0 mm 5 mps 738 mmHg 74%
08:00 +8°C° 0 mm 6 mps 738 mmHg 70%
09:00 +9°C° 0 mm 7 mps 738 mmHg 66%
10:00 +10°C° 0 mm 7 mps 738 mmHg 62%
11:00 +12°C° 0 mm 7 mps 737 mmHg 59%
12:00 +14°C° 0 mm 7 mps 737 mmHg 55%
13:00 +14°C° 0 mm 7 mps 737 mmHg 57%
14:00 +14°C° 0 mm 7 mps 737 mmHg 59%
15:00 +12°C° 0 mm 7 mps 737 mmHg 61%
16:00 +11°C° 0 mm 6 mps 738 mmHg 65%
17:00 +10°C° 0 mm 5 mps 738 mmHg 69%
18:00 +10°C° 0 mm 3 mps 738 mmHg 73%
19:00 +10°C° 0 mm 3 mps 738 mmHg 75%
20:00 +10°C° 0 mm 3 mps 738 mmHg 77%
21:00 +10°C° 0 mm 3 mps 738 mmHg 79%
22:00 +10°C° 0 mm 4 mps 738 mmHg 79%
23:00 +10°C° 0 mm 4 mps 737 mmHg 79%

Tomorrow, 24 October, Saturday

Time Temperature Precipitation Wind Pressure Humidity
00:00 +10°C° 0 mm 4 mps 737 mmHg 78%
01:00 +10°C° 0.2 mm 4 mps 737 mmHg 78%
02:00 +11°C° 0.2 mm 4 mps 736 mmHg 78%
03:00 +10°C° 0.2 mm 5 mps 736 mmHg 78%
04:00 +10°C° 0 mm 5 mps 736 mmHg 73%
05:00 +12°C° 0 mm 5 mps 735 mmHg 69%
06:00 +11°C° 0 mm 6 mps 735 mmHg 64%
07:00 +11°C° 0 mm 6 mps 735 mmHg 61%
08:00 +13°C° 0 mm 6 mps 735 mmHg 59%
09:00 +13°C° 0 mm 6 mps 736 mmHg 56%
10:00 +14°C° 0 mm 6 mps 736 mmHg 55%
11:00 +15°C° 0 mm 6 mps 736 mmHg 54%
12:00 +16°C° 0 mm 6 mps 736 mmHg 53%
13:00 +16°C° 0 mm 5 mps 736 mmHg 54%
14:00 +16°C° 0 mm 5 mps 736 mmHg 55%
15:00 +16°C° 0 mm 5 mps 736 mmHg 56%
16:00 +15°C° 0 mm 4 mps 737 mmHg 62%
17:00 +13°C° 0 mm 3 mps 737 mmHg 67%
18:00 +13°C° 0 mm 2 mps 737 mmHg 73%
19:00 +13°C° 0 mm 2 mps 737 mmHg 74%
20:00 +13°C° 0 mm 2 mps 737 mmHg 76%
21:00 +12°C° 0 mm 1 mps 737 mmHg 78%
22:00 +12°C° 0 mm 1 mps 737 mmHg 79%
23:00 +12°C° 0 mm 1 mps 737 mmHg 79%

Day after tomorrow, 25 October, Sunday

Time Temperature Precipitation Wind Pressure Humidity
00:00 +11°C° 0 mm 0 mps 737 mmHg 80%
01:00 +10°C° 0.2 mm 0 mps 737 mmHg 84%
02:00 +11°C° 0.2 mm 1 mps 737 mmHg 87%
03:00 +11°C° 0.2 mm 1 mps 737 mmHg 91%
04:00 +11°C° 0.1 mm 1 mps 736 mmHg 92%
05:00 +11°C° 0.1 mm 1 mps 736 mmHg 93%
06:00 +11°C° 0.1 mm 1 mps 736 mmHg 94%
07:00 +12°C° 0.1 mm 2 mps 736 mmHg 92%
08:00 +12°C° 0.1 mm 2 mps 736 mmHg 90%
09:00 +12°C° 0.1 mm 2 mps 735 mmHg 88%
10:00 +12°C° 0.1 mm 3 mps 735 mmHg 82%
11:00 +12°C° 0.1 mm 3 mps 735 mmHg 76%
12:00 +13°C° 0.1 mm 4 mps 734 mmHg 70%
13:00 +12°C° 0.5 mm 5 mps 734 mmHg 76%
14:00 +11°C° 0.5 mm 6 mps 734 mmHg 82%
15:00 +10°C° 0.5 mm 7 mps 734 mmHg 88%
16:00 +9°C° 0.2 mm 7 mps 734 mmHg 87%
17:00 +8°C° 0.2 mm 6 mps 734 mmHg 85%
18:00 +8°C° 0.2 mm 6 mps 735 mmHg 83%
19:00 +8°C° 0 mm 6 mps 735 mmHg 83%
20:00 +8°C° 0 mm 6 mps 736 mmHg 83%
21:00 +6°C° 0 mm 7 mps 737 mmHg 84%
22:00 +7°C° 0 mm 6 mps 737 mmHg 85%
23:00 +7°C° 0 mm 6 mps 738 mmHg 85%

, 26 October, Monday

Time Temperature Precipitation Wind Pressure Humidity
00:00 +6°C° 0 mm 5 mps 738 mmHg 86%
01:00 +6°C° 0 mm 5 mps 739 mmHg 85%
02:00 +6°C° 0 mm 5 mps 739 mmHg 84%
03:00 +6°C° 0 mm 5 mps 740 mmHg 83%
04:00 +5°C° 0 mm 5 mps 740 mmHg 86%
05:00 +4°C° 0 mm 4 mps 741 mmHg 89%
06:00 +4°C° 0 mm 4 mps 741 mmHg 92%
07:00 +4°C° 0 mm 4 mps 742 mmHg 86%
08:00 +5°C° 0 mm 4 mps 742 mmHg 79%
09:00 +6°C° 0 mm 4 mps 742 mmHg 73%
10:00 +7°C° 0 mm 4 mps 743 mmHg 68%
11:00 +8°C° 0 mm 4 mps 743 mmHg 64%
12:00 +10°C° 0 mm 5 mps 743 mmHg 59%
13:00 +9°C° 0 mm 5 mps 743 mmHg 61%
14:00 +9°C° 0 mm 5 mps 743 mmHg 63%
15:00 +9°C° 0 mm 5 mps 744 mmHg 64%
16:00 +8°C° 0 mm 5 mps 744 mmHg 64%
17:00 +8°C° 0 mm 5 mps 744 mmHg 63%
18:00 +7°C° 0 mm 4 mps 745 mmHg 63%
19:00 +6°C° 0 mm 4 mps 745 mmHg 69%
20:00 +5°C° 0 mm 4 mps 745 mmHg 75%
21:00 +4°C° 0 mm 3 mps 746 mmHg 81%
22:00 +3°C° 0 mm 3 mps 746 mmHg 83%
23:00 +2°C° 0 mm 3 mps 747 mmHg 85%

26 October, Monday

Time Temperature Precipitation Wind Pressure Humidity
00:00 +6°C° 0 mm 5 mps 738 mmHg 86%
01:00 +6°C° 0 mm 5 mps 739 mmHg 85%
02:00 +6°C° 0 mm 5 mps 739 mmHg 84%
03:00 +6°C° 0 mm 5 mps 740 mmHg 83%
04:00 +5°C° 0 mm 5 mps 740 mmHg 86%
05:00 +4°C° 0 mm 4 mps 741 mmHg 89%
06:00 +4°C° 0 mm 4 mps 741 mmHg 92%
07:00 +4°C° 0 mm 4 mps 742 mmHg 86%
08:00 +5°C° 0 mm 4 mps 742 mmHg 79%
09:00 +6°C° 0 mm 4 mps 742 mmHg 73%
10:00 +7°C° 0 mm 4 mps 743 mmHg 68%
11:00 +8°C° 0 mm 4 mps 743 mmHg 64%
12:00 +10°C° 0 mm 5 mps 743 mmHg 59%
13:00 +9°C° 0 mm 5 mps 743 mmHg 61%
14:00 +9°C° 0 mm 5 mps 743 mmHg 63%
15:00 +9°C° 0 mm 5 mps 744 mmHg 64%
16:00 +8°C° 0 mm 5 mps 744 mmHg 64%
17:00 +8°C° 0 mm 5 mps 744 mmHg 63%
18:00 +7°C° 0 mm 4 mps 745 mmHg 63%
19:00 +6°C° 0 mm 4 mps 745 mmHg 69%
20:00 +5°C° 0 mm 4 mps 745 mmHg 75%
21:00 +4°C° 0 mm 3 mps 746 mmHg 81%
22:00 +3°C° 0 mm 3 mps 746 mmHg 83%
23:00 +2°C° 0 mm 3 mps 747 mmHg 85%

27 October, Tuesday

Time Temperature Precipitation Wind Pressure Humidity
00:00 +3°C° 0 mm 2 mps 747 mmHg 86%
01:00 +2°C° 0 mm 2 mps 747 mmHg 87%
02:00 +2°C° 0 mm 2 mps 748 mmHg 87%
03:00 +1°C° 0 mm 2 mps 748 mmHg 88%
04:00 +1°C° 0 mm 2 mps 748 mmHg 86%
05:00 -1°C° 0 mm 2 mps 749 mmHg 84%
06:00 -1°C° 0 mm 2 mps 749 mmHg 83%
07:00 +1°C° 0 mm 2 mps 750 mmHg 76%
08:00 +1°C° 0 mm 2 mps 750 mmHg 69%
09:00 +2°C° 0 mm 2 mps 751 mmHg 62%
10:00 +3°C° 0 mm 2 mps 751 mmHg 54%
11:00 +4°C° 0 mm 2 mps 751 mmHg 46%
12:00 +6°C° 0 mm 2 mps 751 mmHg 38%
13:00 +6°C° 0 mm 2 mps 751 mmHg 36%
14:00 +6°C° 0 mm 2 mps 751 mmHg 34%
15:00 +7°C° 0 mm 2 mps 751 mmHg 33%
16:00 +5°C° 0 mm 2 mps 751 mmHg 38%
17:00 +4°C° 0 mm 2 mps 751 mmHg 43%
18:00 +2°C° 0 mm 2 mps 751 mmHg 48%
19:00 +2°C° 0 mm 2 mps 751 mmHg 49%
20:00 +2°C° 0 mm 2 mps 751 mmHg 51%
21:00 +1°C° 0 mm 2 mps 751 mmHg 53%
22:00 +1°C° 0 mm 2 mps 751 mmHg 56%
23:00 +1°C° 0 mm 2 mps 751 mmHg 58%

28 October, Wednesday

Time Temperature Precipitation Wind Pressure Humidity
00:00 +1°C° 0 mm 2 mps 751 mmHg 61%
01:00 -1°C° 0 mm 2 mps 751 mmHg 62%
02:00 -1°C° 0 mm 2 mps 751 mmHg 64%
03:00 -1°C° 0 mm 2 mps 751 mmHg 65%
04:00 -1°C° 0 mm 2 mps 751 mmHg 66%
05:00 -2°C° 0 mm 2 mps 751 mmHg 67%
06:00 -2°C° 0 mm 2 mps 751 mmHg 67%
07:00 -1°C° 0 mm 2 mps 751 mmHg 63%
08:00 +1°C° 0 mm 2 mps 751 mmHg 59%
09:00 +2°C° 0 mm 2 mps 751 mmHg 55%
10:00 +3°C° 0 mm 2 mps 751 mmHg 50%
11:00 +4°C° 0 mm 3 mps 751 mmHg 46%
12:00 +5°C° 0 mm 3 mps 751 mmHg 42%
13:00 +5°C° 0 mm 3 mps 751 mmHg 41%
14:00 +5°C° 0 mm 3 mps 750 mmHg 41%
15:00 +5°C° 0 mm 4 mps 750 mmHg 41%
16:00 +4°C° 0 mm 3 mps 750 mmHg 45%
17:00 +3°C° 0 mm 3 mps 750 mmHg 48%
18:00 +2°C° 0 mm 3 mps 749 mmHg 51%
19:00 +2°C° 0 mm 3 mps 749 mmHg 53%
20:00 +1°C° 0 mm 3 mps 749 mmHg 55%
21:00 +1°C° 0 mm 3 mps 749 mmHg 57%
22:00 +2°C° 0 mm 2 mps 749 mmHg 59%
23:00 +1°C° 0 mm 2 mps 749 mmHg 61%
Show more

We Need Your Consent

Meteoprog and our Service Providers may store and access personal data such as cookies, device identifiers or other similar technologies on your device and process such data to personalise content and ads, as well as provide social media features and to analyse the traffic.

  • Store and/or access information on your device

    Cookies, device identifiers or other information can be stored or accessed on your device for the purposes indicated above.

  • Personalised ads and content, ad and content measurement, audience insights, and products development

    Ads and content can be personalised based on a profile. More data can be added to better personalise ads and content. Ad and content performance can be measured. Insights about the audience who saw the ads and content can be derived. Such data can be used to develop or improve user’s experience, systems and software.

By clicking ‘I Agree’ you will allow the use of indicated cookies, device identifiers, web beacons or other similar technologies. Your settings can be changed in the browser on your device.

For certain purposes, legitimate interests may be relied on, rather than consent. You can read more about this in our Privacy and Cookie Policy.